RH
41 38 36 34 32 30 29 27 26 25 24 24 24 24 24 24 24 24 24 24 24 24 25 25 25 25 25 25 25 25 26 26 26 27 27 28 29 31 32 33 34 35 36 37 38 39 39 40 41 42 44 45 47 49 52 56 61 65 69 71 73 74 76 78 79 80 81 81 82 82 83 85 86 87 88 88 88 88 88 88 88 88 88 87 87 88
36 34 32 30 29 28 27 26 25 25 24 24 23 23 23 24 24 24 24 24 24 24 25 25 25 25 25 25 25 25 25 26 26 26 26 27 27 28 29 29 30 31 32 33 34 36 36 38 39 40 41 42 43 44 46 50 54 58 63 68 71 74 75 76 78 79 80 81 82 82 82 83 84 85 87 88 88 89 89 89 89 89 89 89 89 89
32 30 29 29 28 27 27 26 26 25 25 24 24 23 23 23 23 23 24 24 24 24 24 25 25 25 25 25 25 25 26 26 26 26 26 27 27 27 27 28 28 29 30 31 32 33 34 35 36 37 38 39 39 40 42 44 47 50 55 60 65 70 74 76 78 79 81 82 83 83 83 83 83 83 85 86 88 89 89 90 90 90 90 90 90 89
29 29 29 29 28 28 28 27 27 26 25 25 24 24 24 24 24 24 24 24 24 25 25 25 25 25 25 25 25 26 26 26 26 26 26 26 27 27 27 27 27 28 28 29 29 30 31 31 32 33 34 35 36 37 38 39 41 43 45 49 54 59 65 69 73 76 79 80 81 82 83 83 83 84 85 86 86 87 88 88 89 89 89 89 89 89
29 29 29 29 29 29 28 28 27 27 26 26 25 25 25 24 24 25 25 25 25 25 25 25 26 26 26 26 26 26 26 26 26 27 26 26 26 26 26 26 26 26 26 26 27 27 27 28 28 29 30 31 31 33 34 35 36 37 38 40 42 45 49 53 58 62 66 68 70 72 73 75 77 79 82 84 85 85 86 87 87 87 88 88 88 88
30 30 30 30 30 30 30 29 28 28 27 27 26 26 26 25 25 25 26 26 26 26 26 26 26 26 26 26 26 26 26 27 27 27 27 26 26 26 26 26 26 25 25 25 25 25 25 26 26 26 26 26 27 27 28 28 29 29 30 31 32 33 35 36 39 41 44 47 49 52 54 57 61 65 70 74 77 79 80 82 83 83 85 86 86 87
31 31 31 31 31 31 31 30 30 29 28 28 27 27 27 27 26 26 26 26 26 26 26 26 26 26 26 26 26 26 26 27 27 27 26 26 26 26 26 26 25 25 25 25 24 24 24 24 24 23 23 22 22 21 21 21 21 21 21 21 22 23 23 24 25 26 27 29 30 32 34 37 41 45 50 55 60 63 67 69 71 73 76 79 82 83
31 31 32 32 32 32 32 31 30 30 29 29 29 28 28 27 27 26 26 26 26 26 26 26 26 26 26 26 25 25 25 25 25 25 25 25 24 24 24 24 24 24 24 23 23 23 22 22 21 21 20 19 18 17 17 16 16 15 15 15 15 15 15 16 16 17 17 18 19 20 21 22 24 27 30 34 38 42 46 49 52 55 59 64 68 72
32 32 33 33 33 33 33 32 31 31 31 30 29 29 28 28 27 26 25 25 24 24 24 25 25 26 26 25 24 23 23 24 24 24 24 23 23 22 22 22 22 21 21 21 20 20 19 19 18 18 17 16 16 15 14 14 13 13 13 13 12 12 12 12 12 12 13 13 13 14 14 14 15 15 16 18 21 23 26 29 32 35 39 44 49 54
33 33 34 34 34 34 34 33 32 32 31 30 30 29 28 27 27 27 27 27 26 24 23 23 24 24 25 24 23 22 22 22 22 22 22 22 22 21 20 20 19 19 18 18 17 17 16 16 16 15 15 15 14 14 13 13 13 12 12 12 12 12 12 12 11 12 11 11 11 11 11 11 11 11 11 11 12 13 14 16 18 20 23 27 31 35
34 34 35 35 35 35 35 34 33 32 31 30 28 26 26 25 25 26 28 31 31 29 25 23 22 22 23 23 22 22 22 21 21 21 21 21 21 20 20 19 18 18 17 17 16 16 15 15 15 14 14 14 14 14 14 13 13 13 12 12 12 12 12 12 12 12 12 11 11 11 11 10 10 10 9 9 9 10 10 11 12 14 16 19 21 23
35 36 36 36 36 36 35 34 32 30 29 27 27 27 27 25 24 25 26 29 31 31 28 25 23 22 22 22 22 22 22 21 21 21 20 20 20 19 19 19 18 18 18 17 17 16 16 16 15 15 15 15 15 15 14 14 14 14 13 13 13 13 13 12 12 12 12 11 11 11 11 10 10 9 9 9 9 9 9 10 11 12 15 17 18 20
37 37 37 37 36 34 33 31 29 28 27 26 27 28 29 26 25 25 25 27 27 27 26 25 25 23 22 22 21 21 22 22 21 21 21 21 20 20 19 19 19 19 19 18 18 18 17 17 16 16 15 15 15 15 15 15 14 14 14 14 14 13 13 12 12 12 12 11 11 11 10 10 10 9 9 9 9 9 9 10 11 12 14 16 18 20
38 37 36 34 33 32 30 28 28 28 29 27 26 26 26 26 25 25 25 26 27 26 25 25 26 26 24 22 22 22 22 22 23 22 22 22 21 21 20 20 19 19 19 19 18 18 17 17 16 15 15 15 14 14 14 14 14 13 13 13 13 13 12 12 12 12 11 11 10 10 10 10 9 9 9 9 9 9 10 10 11 12 14 16 17 19
36 34 32 31 30 30 29 28 28 28 29 27 26 25 26 26 26 26 26 27 27 27 26 25 26 28 28 26 24 24 24 24 24 24 23 23 22 22 21 20 20 19 19 19 18 18 17 16 16 15 15 14 14 14 13 13 13 13 13 13 12 12 12 12 12 11 11 11 10 10 10 9 9 9 9 10 10 10 11 11 12 13 14 16 17 18
31 29 28 29 30 31 30 29 28 28 28 27 26 26 26 26 26 26 26 27 27 27 27 27 27 29 30 29 27 26 25 26 26 25 25 23 23 22 22 21 20 20 19 19 19 18 18 17 16 16 15 15 15 14 14 13 13 13 13 13 13 12 12 12 12 12 11 11 11 10 10 10 10 10 11 11 11 12 12 12 13 14 15 16 17 18
26 26 27 29 31 33 32 30 29 28 28 27 26 26 26 26 26 26 26 26 27 28 29 29 29 29 30 32 31 29 27 27 26 26 25 23 23 23 22 22 21 21 20 20 19 19 18 18 17 17 16 16 16 15 15 14 14 14 13 13 13 13 13 12 12 12 12 12 12 12 11 11 11 11 12 12 12 13 14 15 16 16 17 18 19 19
26 26 27 29 32 34 34 32 30 29 28 29 29 28 27 27 26 26 26 27 28 28 29 29 30 29 28 33 33 30 27 27 27 26 25 24 23 23 23 22 22 21 21 21 20 20 19 19 18 18 17 17 17 16 16 15 15 15 15 15 14 14 14 14 14 14 14 14 14 14 14 13 13 13 13 14 14 15 16 17 18 20 21 21 21 23
28 28 28 30 32 34 33 33 32 32 31 31 30 30 29 29 28 28 28 28 29 30 30 30 30 30 29 33 33 32 29 28 27 27 26 25 24 24 24 23 22 22 22 21 21 21 20 20 19 19 19 18 18 17 17 17 17 16 16 16 16 16 15 16 16 16 17 17 17 17 17 16 16 16 16 16 16 16 17 18 19 21 22 23 24 24
30 31 31 32 32 33 35 36 37 35 33 31 30 30 30 30 30 30 31 31 30 30 30 30 31 31 31 32 33 33 31 29 29 28 28 26 25 24 24 24 23 23 23 23 22 22 22 21 21 20 20 20 19 19 19 19 18 18 18 18 18 17 17 18 18 19 19 19 19 19 19 19 19 19 19 19 19 19 19 19 19 20 21 23 24 25
31 33 35 34 34 34 36 39 38 35 31 31 30 30 30 30 31 32 32 32 32 31 30 31 31 31 31 32 32 32 31 31 30 30 29 28 27 26 26 25 25 24 24 23 23 23 23 23 22 22 22 21 21 21 21 21 21 21 21 20 20 20 20 20 21 21 22 22 21 21 21 21 21 21 21 21 20 20 20 20 20 20 20 21 22 24
31 33 35 34 34 34 36 37 36 34 31 30 31 31 31 31 32 32 32 32 32 31 31 31 31 31 31 32 32 32 32 32 32 32 32 30 29 28 29 27 26 25 25 24 24 24 24 24 24 24 24 23 23 23 23 23 23 23 23 23 22 22 22 23 23 23 23 23 23 23 23 22 22 22 22 22 22 22 22 21 21 21 21 21 22 22
30 32 34 34 34 34 34 35 35 34 32 31 31 31 30 31 31 31 31 31 31 31 31 31 31 31 32 32 33 33 33 33 33 33 34 33 32 31 30 29 28 27 26 26 26 26 26 26 26 26 26 26 26 26 26 26 26 25 25 25 25 25 24 24 24 24 24 24 24 24 23 23 23 23 23 23 22 22 22 22 22 22 22 22 22 22
30 32 34 34 34 33 33 34 34 34 32 31 31 31 30 31 31 32 32 32 32 32 32 32 32 32 33 33 34 34 34 34 34 35 35 35 34 32 31 30 30 29 29 28 28 28 29 29 29 29 29 29 28 28 29 29 28 28 27 26 26 26 25 25 25 25 24 24 24 24 24 23 23 23 23 23 23 23 22 22 22 22 22 22 22 22
31 32 33 34 33 33 33 34 34 34 33 33 32 32 32 32 32 32 32 33 34 34 34 35 35 35 36 35 37 38 37 35 35 35 36 36 35 33 32 32 32 32 31 31 31 31 31 32 32 32 31 31 31 31 31 30 30 29 29 28 27 27 26 26 25 25 24 24 24 24 24 24 23 24 23 23 23 23 23 23 22 22 22 22 22 22
32 33 33 33 34 34 34 34 35 34 34 34 33 33 33 33 33 33 34 35 36 36 38 40 40 39 37 36 38 40 40 37 35 34 34 35 35 34 34 33 33 33 33 32 32 33 34 34 34 34 34 33 33 32 32 32 31 31 30 29 28 27 27 26 26 25 25 24 24 24 24 24 24 24 23 24 23 23 23 23 23 23 23 22 22 22
34 34 35 35 35 35 35 35 35 35 35 35 35 35 35 35 35 36 36 37 38 39 41 42 41 39 37 37 37 38 40 38 35 33 33 34 35 35 35 35 35 34 34 34 34 35 35 36 36 35 35 35 34 34 33 33 32 31 30 30 29 28 27 27 26 26 25 25 25 24 24 24 24 24 24 24 24 24 24 23 23 24 23 24 23 23
36 36 37 37 37 37 36 36 36 36 36 36 36 37 36 36 37 37 37 38 38 39 40 40 39 39 38 37 37 37 38 38 36 34 33 35 36 37 36 36 36 35 36 35 36 36 37 37 36 36 35 35 35 34 34 33 32 32 31 30 29 28 28 27 27 26 26 26 25 25 25 25 25 24 24 24 24 24 24 24 24 24 25 25 25 25
36 36 37 37 37 37 37 37 37 37 38 38 38 38 38 38 38 38 38 38 38 38 39 38 38 37 37 37 37 37 37 37 37 36 35 37 38 38 37 37 37 37 37 37 37 37 38 37 37 36 35 35 35 35 34 34 33 32 31 30 30 29 28 28 27 27 27 26 26 26 26 25 25 25 25 25 25 25 25 25 25 26 26 26 26 26
36 36 37 37 38 38 38 38 38 39 39 39 39 39 39 39 39 39 39 38 38 38 38 37 37 37 37 37 38 39 38 39 39 38 37 38 39 38 38 38 38 38 38 39 39 38 38 38 38 37 36 35 35 34 34 34 33 32 32 31 30 30 29 29 28 28 27 27 27 27 27 26 26 26 26 26 26 26 26 26 26 26 26 26 26 26
39 39 39 39 39 39 40 40 40 40 40 40 40 40 40 40 40 40 39 38 38 38 38 37 37 37 37 38 40 40 40 41 40 38 37 39 39 39 38 39 39 39 40 40 40 40 40 39 39 38 37 36 35 35 34 34 34 33 32 31 31 30 30 29 28 28 28 28 27 27 27 27 27 27 27 27 27 26 26 26 26 26 26 26 26 26
41 42 42 42 42 42 42 42 42 41 41 41 41 41 41 40 40 39 38 38 38 38 38 38 37 37 37 37 38 39 39 41 41 39 37 39 40 40 39 40 41 41 41 41 41 42 42 41 40 39 38 37 36 35 35 35 34 33 31 30 29 29 29 29 28 28 28 28 28 28 28 28 28 28 28 27 27 27 27 27 27 26 26 26 27 27
42 44 45 45 45 46 45 45 44 43 43 42 41 41 40 40 39 38 38 38 37 38 38 38 37 37 37 37 37 37 38 40 41 40 38 40 41 41 41 41 42 42 42 42 42 43 43 42 41 40 39 39 38 37 36 35 34 32 30 28 27 27 27 27 28 28 28 28 28 28 29 29 28 28 28 28 28 28 27 27 27 27 27 28 28 28
42 44 45 46 47 48 48 47 46 46 44 44 42 41 40 39 39 38 38 38 38 38 38 38 37 37 37 36 37 37 37 41 42 42 40 41 42 43 42 43 43 43 44 44 44 44 44 44 44 43 42 41 40 38 37 35 33 30 28 26 25 25 25 26 27 28 29 29 29 30 29 29 29 29 29 28 29 29 29 29 29 29 29 30 31 31
41 43 44 46 47 48 48 48 48 47 46 44 43 41 40 40 39 39 39 39 38 38 38 37 37 37 37 37 37 37 37 42 42 41 40 41 42 43 43 44 44 45 46 46 46 46 46 46 46 45 45 43 41 39 37 34 31 29 26 25 24 23 24 25 26 28 30 31 31 31 31 31 30 30 30 30 30 30 30 31 31 32 33 34 34 34
41 42 43 45 46 47 48 48 48 47 46 45 43 41 41 40 40 40 39 39 39 38 38 37 37 36 36 36 36 36 36 39 40 40 39 40 42 43 44 45 45 46 47 48 48 48 48 48 47 47 46 44 42 39 36 32 30 27 25 24 24 24 24 25 27 29 31 32 33 33 33 32 32 31 31 31 31 32 33 33 34 35 36 36 35 35
41 42 43 44 45 46 47 47 47 47 46 45 44 42 41 41 40 40 39 39 38 38 37 37 36 36 36 35 35 35 35 36 37 38 39 40 42 43 44 45 46 46 48 49 49 49 50 49 49 47 46 44 41 38 35 31 28 26 25 24 24 24 25 26 27 29 31 33 34 35 34 34 33 32 32 32 33 34 35 36 37 38 38 37 35 33
41 42 43 44 45 46 47 47 48 48 48 46 45 44 42 41 41 40 39 38 38 37 37 36 36 36 35 35 34 34 35 35 36 38 39 40 41 43 43 45 45 46 47 48 49 50 50 50 50 48 46 43 40 36 33 29 26 25 24 24 25 25 26 27 28 30 32 33 34 35 34 34 33 33 33 34 35 37 38 39 39 38 37 35 33 31
42 42 43 44 45 46 47 47 48 49 49 48 46 45 43 42 40 39 38 37 37 36 36 36 35 35 34 34 34 34 35 36 37 38 39 40 41 42 43 44 45 45 46 47 48 49 50 49 48 46 44 40 37 33 30 27 25 24 24 24 25 26 27 28 29 30 32 33 34 34 34 34 34 35 36 37 38 39 39 38 37 36 34 32 30 29
42 43 43 44 45 46 47 48 49 50 50 49 48 46 44 42 40 39 38 37 36 35 35 35 34 34 34 34 34 35 36 37 38 38 39 40 41 41 42 43 43 44 45 46 47 48 48 47 45 43 40 37 33 30 27 26 25 24 24 25 25 25 27 28 30 31 32 33 34 34 34 35 37 38 39 40 40 39 38 36 34 31 29 28 27 27
43 43 44 44 45 46 47 48 49 50 50 50 49 48 46 43 41 39 38 37 36 35 35 34 34 33 34 34 35 36 37 38 39 39 40 40 41 41 41 42 42 43 44 45 45 45 45 44 42 39 36 33 30 28 26 25 25 25 25 25 25 26 27 29 30 31 32 33 34 35 37 39 40 42 43 43 41 39 36 33 30 28 26 26 26 26
44 44 44 45 45 46 47 48 49 50 51 51 51 50 49 46 43 41 39 37 36 35 35 34 34 34 34 35 37 38 40 40 41 41 41 41 41 41 41 41 42 42 43 44 44 43 42 40 37 35 32 30 28 27 26 25 26 26 25 25 25 26 27 29 30 32 33 34 36 37 40 42 44 46 46 44 42 38 34 31 28 26 25 25 26 26
45 45 45 45 46 47 48 49 50 51 51 52 53 52 50 48 46 43 41 39 38 37 36 36 36 36 37 38 39 41 42 43 42 42 41 41 40 40 40 40 41 42 42 42 42 40 38 36 33 31 30 28 28 27 26 26 26 26 26 26 26 27 28 29 31 33 35 37 38 41 43 46 48 49 48 45 42 38 34 30 28 27 26 26 27 27
45 45 45 46 47 48 49 50 50 51 52 53 53 52 51 49 47 45 43 41 40 39 38 38 39 39 41 42 43 44 44 44 43 42 41 40 39 39 39 40 40 41 41 40 39 37 34 33 31 29 29 28 28 27 27 26 26 26 26 27 28 29 30 31 33 35 37 39 41 44 47 49 50 50 48 45 41 37 34 32 30 30 29 29 29 29
45 46 46 47 48 49 50 51 51 52 52 53 53 53 52 50 47 46 44 42 41 40 40 40 41 42 43 44 44 45 44 43 41 40 38 38 37 37 38 39 39 39 38 37 35 33 32 30 29 29 29 28 28 28 27 27 27 27 27 28 29 30 31 33 35 37 40 42 44 47 49 50 50 49 46 43 40 37 35 34 34 33 33 33 33 33
46 46 47 48 49 50 51 52 52 53 53 53 53 53 52 50 48 46 44 42 41 41 41 41 42 42 43 43 43 42 41 39 37 35 35 35 35 36 37 37 37 37 36 35 34 32 31 30 30 29 29 29 28 28 27 28 28 28 28 29 31 32 34 36 38 41 43 46 48 50 51 51 50 47 44 40 38 36 36 36 36 37 37 37 37 38
47 48 49 50 50 51 52 52 53 54 54 54 53 53 52 50 48 46 44 43 41 41 40 41 41 41 41 41 40 38 36 34 33 32 33 34 34 35 36 36 36 35 35 34 33 32 32 31 31 30 29 29 29 28 28 28 28 29 30 31 32 34 36 38 41 44 47 49 51 52 52 51 48 45 41 38 37 36 36 37 38 39 39 40 41 42
49 50 51 51 52 53 53 54 54 55 55 55 54 54 53 51 49 47 44 43 41 40 40 39 39 38 38 37 35 34 32 32 31 32 33 34 35 36 37 36 36 36 35 34 34 33 32 32 31 30 30 29 29 29 28 29 29 30 31 33 34 37 39 41 44 47 49 51 52 52 51 49 46 43 39 37 36 35 36 37 38 40 41 42 43 44
52 53 53 54 54 55 55 55 56 56 57 57 56 55 54 53 50 48 45 43 41 38 37 36 35 34 33 32 32 31 31 32 33 34 35 36 37 37 38 38 38 37 36 36 35 34 32 32 31 30 30 30 30 29 29 29 30 32 33 35 37 40 42 45 48 50 52 53 53 51 50 47 44 41 39 37 37 36 36 37 38 39 41 43 44 45
55 54 55 55 55 56 56 56 57 58 58 59 58 57 55 54 52 49 46 42 38 35 32 31 30 29 28 29 30 31 32 34 35 37 38 38 38 38 38 38 38 37 37 36 34 33 32 31 30 30 30 30 30 31 31 31 32 33 35 38 40 43 46 48 51 53 54 54 53 50 48 45 42 40 39 39 38 38 37 37 38 39 41 44 45 46
55 55 55 55 55 55 56 56 57 59 60 60 60 58 56 53 51 48 44 39 34 31 28 26 26 26 26 27 29 32 34 36 38 39 40 40 39 38 38 37 37 36 36 34 34 33 32 31 29 29 30 31 31 32 33 33 34 36 38 40 43 46 49 52 53 55 55 53 51 49 46 44 42 41 40 40 40 40 39 38 39 40 43 45 46 46